Regional Weather Roundup
Issued by NWS Little Rock, AR

Home | Current Version | Previous Version | Graphics & Text | Print | Product List | Glossary On
Versions: 1 2 3 4 5 6 7 8 9 10 11 12 13 14 15 16 17 18 19 20 21 22 23 24 25 26 27 28 29 30 31 32 33 34 35 36 37 38 39 40 41 42 43 44 45 46 47 48 49 50
000
ASUS44 KLZK 270705
RWRLZK

WEATHER ROUNDUP FOR ARKANSAS
NATIONAL WEATHER SERVICE LITTLE ROCK AR
200 AM CDT SUN MAY 27 2018

NOTE: "FAIR" INDICATES FEW OR NO CLOUDS BELOW 12,000 FEET WITH NO
SIGNIFICANT WEATHER AND/OR OBSTRUCTIONS TO VISIBILITY.

ARZ001-003-010-029-270800-
NORTHWEST ARKANSAS

CITY           SKY/WX    TMP DP  RH WIND       PRES   REMARKS
FAYETTEVILLE   CLEAR     67  66  97 CALM      29.89S
FORT SMITH     CLEAR     73  70  90 E5        29.85S
HARRISON       CLEAR     68  67  96 CALM      29.90F
BENTONVILLE    CLEAR     71  66  84 CALM      29.91F
ROGERS         CLEAR     69  67  93 CALM      29.91S
SILOAM SPGS    CLEAR     69  68  96 CALM      29.89F
HIGHFILL       CLEAR     70  66  87 S5        29.89F
$$

ARZ004-005-016-270800-
NORTH CENTRAL ARKANSAS

CITY           SKY/WX    TMP DP  RH WIND       PRES   REMARKS
BATESVILLE     CLEAR     71  70  96 CALM      29.87S
FLIPPIN        CLEAR     69  68  96 CALM      29.87F
MTN HOME       CLEAR     68  68 100 CALM      29.87S
$$

ARZ040-041-270800-
WEST CENTRAL ARKANSAS

CITY           SKY/WX    TMP DP  RH WIND       PRES   REMARKS
MENA           FAIR     N/A N/A N/A CALM      29.88S
MOUNT IDA      FAIR      68  68 100 CALM      29.84F
$$

ARZ009-017-025-026-028-270800-
NORTHEAST ARKANSAS

CITY           SKY/WX    TMP DP  RH WIND       PRES   REMARKS
CORNING        FAIR      75  75 100 CALM      29.85S
JONESBORO      FAIR      73  73 100 CALM      29.85F
NEWPORT        FAIR      73  70  90 SW3       29.86S
WALNUT RIDGE     N/A     76  73  91 SW3       29.86R
BLYTHEVILLE    FAIR      75  69  81 SW5       29.86S
$$

ARZ022-023-033-042-044-270800-
CENTRAL ARKANSAS

CITY           SKY/WX    TMP DP  RH WIND       PRES   REMARKS
LITTLE ROCK    FAIR      70  70 100 S3        29.86S
N LITTLE ROCK    N/A     71  69  93 CALM      29.82S
JACKSONVILLE   CLEAR     71  71 100 CALM      29.85F
CONWAY         MOSUNNY   72  72 100 CALM      29.85S FOG
SEARCY         FAIR      70  70 100 CALM      29.86S FOG
HOT SPRINGS    FAIR      71  71 100 NW3       29.86S
RUSSELLVILLE   CLEAR     69  69 100 CALM      29.85F
CLINTON        CLOUDY    68  68 100 CALM      29.88S
$$

ARZ036-270800-
EAST ARKANSAS

CITY           SKY/WX    TMP DP  RH WIND       PRES   REMARKS
WEST MEMPHIS   FAIR      72  71  97 S6        29.85F
$$

ARZ050-053-066-070-073-270800-
SOUTHWEST ARKANSAS

CITY           SKY/WX    TMP DP  RH WIND       PRES   REMARKS
ARKADELPHIA    FAIR      70  70 100 CALM      29.85S FOG
CAMDEN         FAIR      70  66  88 CALM      29.84S FOG
TEXARKANA      CLEAR     71  70  96 CALM      29.83S
EL DORADO      FAIR      70  70 100 SE5       29.84F
DE QUEEN       CLEAR     69  69 100 E3        29.82F
$$

ARZ056-057-069-270800-
SOUTHEAST ARKANSAS

CITY           SKY/WX    TMP DP  RH WIND       PRES   REMARKS
PINE BLUFF     FAIR      70  67  90 SE3       29.86F
STUTTGART      FAIR      73  69  87 S5        29.86F

$$





USA.gov is the U.S. government's official web portal to all federal, state and local government web resources and services.